| time (UTC) | temp C | wind direction | speed KPH | gust KPH | rain 1hr cm | rain 24hr cm | rain mn cm | humidity % | barometer mb |
| 20260508070506 | 22 | 138 | 0.0 | 3.2 | 0.00 | 0.00 | 0.00 | 54 | 1006.3 |
| 20260508070006 | 22 | 144 | 0.0 | 3.2 | 0.00 | 0.00 | 0.00 | 54 | 1006.2 |
| 20260508065506 | 22 | 176 | 0.0 | 3.2 | 0.00 | 0.00 | 0.00 | 53 | 1006.1 |
| 20260508065001 | 22 | 338 | 0.0 | 3.2 | 0.00 | 0.00 | 0.00 | 51 | 1006.1 |
| 20260508064501 | 23 | 246 | 0.0 | 8.0 | 0.00 | 0.00 | 0.00 | 50 | 1006.0 |
| 20260508064102 | 22 | 269 | 1.6 | 0.0 | 0.00 | 0.00 | 0.00 | 50 | 1005.9 |
| 20260508063601 | 22 | 219 | 1.6 | 9.7 | 0.00 | 0.00 | 0.00 | 50 | 1005.9 |
| 20260508063140 | 22 | 165 | 0.0 | 4.8 | 0.00 | 0.00 | 0.00 | 51 | 1005.9 |
| 20260508062603 | 22 | 248 | 0.0 | 4.8 | 0.00 | 0.00 | 0.00 | 51 | 1005.9 |
| 20260508062059 | 22 | 191 | 0.0 | 1.6 | 0.00 | 0.00 | 0.00 | 50 | 1005.9 |
| 20260508061559 | 22 | 210 | 0.0 | 1.6 | 0.00 | 0.00 | 0.00 | 50 | 1005.9 |
| 20260508061058 | 23 | 160 | 0.0 | 4.8 | 0.00 | 0.00 | 0.00 | 50 | 1006.0 |
| 20260508060555 | 23 | 146 | 0.0 | 8.0 | 0.00 | 0.00 | 0.00 | 50 | 1005.9 |
| 20260508060057 | 23 | 141 | 0.0 | 8.0 | 0.00 | 0.00 | 0.00 | 49 | 1005.8 |
| 20260508055556 | 23 | 112 | 0.0 | 17.7 | 0.00 | 0.00 | 0.00 | 48 | 1005.7 |
| 20260508055054 | 23 | 228 | 4.8 | 17.7 | 0.00 | 0.00 | 0.00 | 48 | 1005.7 |
| 20260508054554 | 23 | 167 | 0.0 | 14.5 | 0.00 | 0.00 | 0.00 | 50 | 1005.9 |
| 20260508054055 | 23 | 236 | 6.4 | 12.9 | 0.00 | 0.00 | 0.00 | 50 | 1005.8 |
| 20260508053554 | 23 | 176 | 3.2 | 19.3 | 0.00 | 0.00 | 0.00 | 51 | 1006.0 |
| 20260508053100 | 23 | 161 | 4.8 | 19.3 | 0.00 | 0.00 | 0.00 | 50 | 1006.2 |
| 20260508052554 | 23 | 150 | 0.0 | 20.9 | 0.00 | 0.00 | 0.00 | 52 | 1006.1 |
| 20260508052054 | 23 | 263 | 9.7 | 24.1 | 0.00 | 0.00 | 0.00 | 52 | 1005.6 |
| 20260508051617 | 23 | 247 | 9.7 | 24.1 | 0.00 | 0.00 | 0.00 | 52 | 1005.6 |
| 20260508051053 | 23 | 253 | 11.3 | 24.1 | 0.00 | 0.00 | 0.00 | 52 | 1005.4 |
| 20260508050553 | 23 | 250 | 11.3 | 22.5 | 0.00 | 0.00 | 0.00 | 52 | 1005.3 |
| 20260508050053 | 23 | 233 | 9.7 | 25.7 | 0.00 | 0.00 | 0.00 | 52 | 1005.1 |
| 20260508045552 | 23 | 288 | 12.9 | 25.7 | 0.00 | 0.00 | 0.00 | 52 | 1005.0 |
| 20260508045055 | 23 | 295 | 11.3 | 32.2 | 0.00 | 0.00 | 0.00 | 52 | 1005.0 |
| 20260508044552 | 23 | 328 | 6.4 | 27.4 | 0.00 | 0.00 | 0.00 | 54 | 1004.9 |
| 20260508044052 | 23 | 252 | 14.5 | 27.4 | 0.00 | 0.00 | 0.00 | 55 | 1005.0 |
| 20260508043552 | 23 | 257 | 12.9 | 29.0 | 0.00 | 0.00 | 0.00 | 56 | 1004.9 |
| 20260508043051 | 23 | 227 | 14.5 | 29.0 | 0.00 | 0.00 | 0.00 | 57 | 1004.9 |
| 20260508042552 | 23 | 245 | 16.1 | 27.4 | 0.00 | 0.00 | 0.00 | 58 | 1004.8 |
| 20260508042051 | 23 | 271 | 14.5 | 29.0 | 0.00 | 0.00 | 0.00 | 58 | 1005.0 |
| 20260508041550 | 23 | 242 | 14.5 | 29.0 | 0.00 | 0.00 | 0.00 | 59 | 1004.8 |
| 20260508041050 | 24 | 248 | 16.1 | 29.0 | 0.00 | 0.00 | 0.00 | 58 | 1004.9 |
| 20260508040550 | 24 | 230 | 11.3 | 20.9 | 0.00 | 0.00 | 0.00 | 57 | 1004.8 |
| 20260508040050 | 25 | 258 | 12.9 | 29.0 | 0.00 | 0.00 | 0.00 | 56 | 1004.5 |
| 20260508035550 | 25 | 293 | 17.7 | 29.0 | 0.00 | 0.00 | 0.00 | 56 | 1004.5 |
| 20260508035050 | 25 | 268 | 11.3 | 25.7 | 0.00 | 0.00 | 0.00 | 57 | 1004.4 |
| 20260508034550 | 25 | 239 | 14.5 | 25.7 | 0.00 | 0.00 | 0.00 | 56 | 1004.3 |
| 20260508034048 | 26 | 242 | 11.3 | 25.7 | 0.00 | 0.00 | 0.00 | 53 | 1004.1 |
| 20260508033549 | 26 | 214 | 6.4 | 20.9 | 0.00 | 0.00 | 0.00 | 51 | 1004.0 |
| 20260508033051 | 26 | 242 | 11.3 | 20.9 | 0.00 | 0.00 | 0.00 | 53 | 1004.0 |
| 20260508032548 | 25 | 240 | 8.0 | 19.3 | 0.00 | 0.00 | 0.00 | 56 | 1003.8 |
| 20260508032049 | 25 | 229 | 6.4 | 19.3 | 0.00 | 0.00 | 0.00 | 60 | 1003.8 |
| 20260508031547 | 25 | 230 | 9.7 | 19.3 | 0.00 | 0.00 | 0.00 | 60 | 1003.6 |
| 20260508031046 | 25 | 252 | 8.0 | 17.7 | 0.00 | 0.00 | 0.00 | 60 | 1003.6 |
| 20260508030547 | 26 | 210 | 4.8 | 16.1 | 0.00 | 0.00 | 0.00 | 59 | 1003.5 |
| 20260508030048 | 26 | 216 | 8.0 | 14.5 | 0.00 | 0.00 | 0.00 | 59 | 1003.5 |
| 20260508025546 | 26 | 209 | 6.4 | 14.5 | 0.00 | 0.00 | 0.00 | 59 | 1003.4 |
| 20260508025145 | 26 | 211 | 4.8 | 12.9 | 0.00 | 0.00 | 0.00 | 58 | 1003.4 |
| 20260508024544 | 26 | 240 | 4.8 | 12.9 | 0.00 | 0.00 | 0.00 | 58 | 1003.3 |
| 20260508024045 | 26 | 210 | 3.2 | 12.9 | 0.00 | 0.00 | 0.00 | 58 | 1003.2 |
| 20260508023545 | 26 | 163 | 3.2 | 14.5 | 0.00 | 0.00 | 0.00 | 58 | 1003.2 |
| 20260508023044 | 26 | 234 | 6.4 | 14.5 | 0.00 | 0.00 | 0.00 | 58 | 1003.2 |
| 20260508022543 | 26 | 231 | 4.8 | 17.7 | 0.00 | 0.00 | 0.00 | 57 | 1003.0 |
| 20260508022043 | 26 | 257 | 6.4 | 17.7 | 0.00 | 0.00 | 0.00 | 57 | 1002.8 |
| 20260508021549 | 26 | 233 | 4.8 | 14.5 | 0.00 | 0.00 | 0.00 | 56 | 1002.8 |
| 20260508021041 | 27 | 262 | 4.8 | 17.7 | 0.00 | 0.00 | 0.00 | 54 | 1002.7 |
| 20260508020541 | 27 | 254 | 6.4 | 17.7 | 0.00 | 0.00 | 0.00 | 52 | 1002.8 |
| 20260508020041 | 27 | 207 | 3.2 | 12.9 | 0.00 | 0.00 | 0.00 | 51 | 1002.6 |
| 20260508015540 | 27 | 202 | 4.8 | 12.9 | 0.00 | 0.00 | 0.00 | 51 | 1002.5 |
| 20260508015040 | 27 | 210 | 6.4 | 8.0 | 0.00 | 0.00 | 0.00 | 49 | 1002.5 |
| 20260508014539 | 27 | 170 | 3.2 | 8.0 | 0.00 | 0.00 | 0.00 | 46 | 1002.4 |
| 20260508014039 | 27 | 190 | 0.0 | 0.0 | 0.00 | 0.00 | 0.00 | 31 | 1002.3 |
| 20260508013540 | 28 | 79 | 0.0 | 0.0 | 0.00 | 0.00 | 0.00 | 30 | 1002.2 |
| 20260508013040 | 28 | 79 | 0.0 | 0.0 | 0.00 | 0.00 | 0.00 | 30 | 1001.9 |
| 20260508012541 | 28 | 79 | 0.0 | 0.0 | 0.00 | 0.00 | 0.00 | 29 | 1001.9 |
| 20260508012039 | 28 | 79 | 0.0 | 0.0 | 0.00 | 0.00 | 0.00 | 29 | 1001.8 |
| 20260508011546 | 29 | 78 | 0.0 | 4.8 | 0.00 | 0.00 | 0.00 | 29 | 1001.8 |
| 20260508011037 | 29 | 65 | 0.0 | 4.8 | 0.00 | 0.00 | 0.00 | 28 | 1001.8 |
| 20260508010539 | 29 | 229 | 0.0 | 1.6 | 0.00 | 0.00 | 0.00 | 28 | 1001.7 |
| 20260508010055 | 30 | 228 | 0.0 | 4.8 | 0.00 | 0.00 | 0.00 | 28 | 1001.6 |
| 20260508005539 | 30 | 65 | 0.0 | 4.8 | 0.00 | 0.00 | 0.00 | 28 | 1001.5 |
| 20260508005036 | 30 | 77 | 0.0 | 8.0 | 0.00 | 0.00 | 0.00 | 27 | 1001.5 |
| 20260508004536 | 30 | 90 | 0.0 | 4.8 | 0.00 | 0.00 | 0.00 | 27 | 1001.4 |
| 20260508004036 | 30 | 103 | 0.0 | 6.4 | 0.00 | 0.00 | 0.00 | 27 | 1001.4 |
| 20260508003536 | 30 | 101 | 0.0 | 11.3 | 0.00 | 0.00 | 0.00 | 26 | 1001.3 |
| 20260508003035 | 30 | 76 | 0.0 | 11.3 | 0.00 | 0.00 | 0.00 | 25 | 1001.3 |
| 20260508002536 | 31 | 78 | 0.0 | 6.4 | 0.00 | 0.00 | 0.00 | 26 | 1001.3 |
| 20260508002035 | 31 | 63 | 1.6 | 9.7 | 0.00 | 0.00 | 0.00 | 25 | 1001.3 |
| 20260508001535 | 31 | 68 | 1.6 | 9.7 | 0.00 | 0.00 | 0.00 | 25 | 1001.3 |
| 20260508001035 | 31 | 79 | 0.0 | 12.9 | 0.00 | 0.00 | 0.00 | 26 | 1001.2 |
| 20260508000534 | 31 | 90 | 0.0 | 12.9 | 0.00 | 0.00 | 0.00 | 25 | 1001.3 |
| 20260508000043 | 31 | 104 | 1.6 | 0.0 | 0.00 | 0.00 | 0.00 | 25 | 1001.2 |
| 20260507235536 | 31 | 116 | 0.0 | 8.0 | 0.00 | 0.00 | 0.00 | 25 | 1001.2 |
| 20260507235033 | 31 | 86 | 1.6 | 9.7 | 0.00 | 0.00 | 0.00 | 26 | 1001.2 |
| 20260507234534 | 31 | 75 | 3.2 | 9.7 | 0.00 | 0.00 | 0.00 | 26 | 1001.2 |
| 20260507234033 | 31 | 82 | 1.6 | 9.7 | 0.00 | 0.00 | 0.00 | 27 | 1001.2 |
| 20260507233532 | 31 | 89 | 0.0 | 14.5 | 0.00 | 0.00 | 0.00 | 26 | 1001.2 |
| 20260507233132 | 31 | 118 | 3.2 | 14.5 | 0.00 | 0.00 | 0.00 | 26 | 1001.3 |
| 20260507232532 | 31 | 94 | 3.2 | 14.5 | 0.00 | 0.00 | 0.00 | 27 | 1001.2 |
| 20260507232032 | 31 | 120 | 4.8 | 12.9 | 0.00 | 0.00 | 0.00 | 26 | 1001.2 |
| 20260507231531 | 31 | 50 | 4.8 | 14.5 | 0.00 | 0.00 | 0.00 | 26 | 1001.1 |
| 20260507231031 | 31 | 108 | 4.8 | 16.1 | 0.00 | 0.00 | 0.00 | 26 | 1001.1 |
| 20260507230532 | 32 | 96 | 3.2 | 19.3 | 0.00 | 0.00 | 0.00 | 27 | 1001.1 |
| 20260507230046 | 32 | 138 | 8.0 | 19.3 | 0.00 | 0.00 | 0.00 | 26 | 1001.1 |
| 20260507225530 | 32 | 116 | 3.2 | 14.5 | 0.00 | 0.00 | 0.00 | 27 | 1001.2 |
| 20260507225029 | 32 | 76 | 4.8 | 12.9 | 0.00 | 0.00 | 0.00 | 27 | 1001.2 |
| 20260507224532 | 32 | 114 | 3.2 | 9.7 | 0.00 | 0.00 | 0.00 | 25 | 1001.3 |
| 20260507224031 | 32 | 137 | 1.6 | 9.7 | 0.00 | 0.00 | 0.00 | 25 | 1001.4 |
| 20260507223532 | 32 | 155 | 0.0 | 8.0 | 0.00 | 0.00 | 0.00 | 25 | 1001.4 |
| 20260507223057 | 32 | 89 | 1.6 | 8.0 | 0.00 | 0.00 | 0.00 | 25 | 1001.4 |
| 20260507222526 | 32 | 113 | 0.0 | 6.4 | 0.00 | 0.00 | 0.00 | 26 | 1001.5 |
| 20260507222027 | 32 | 136 | 3.2 | 6.4 | 0.00 | 0.00 | 0.00 | 25 | 1001.6 |
| 20260507221525 | 31 | 148 | 0.0 | 3.2 | 0.00 | 0.00 | 0.00 | 26 | 1001.6 |
| 20260507221024 | 32 | 217 | 0.0 | 1.6 | 0.00 | 0.00 | 0.00 | 25 | 1001.7 |